CAS500-2
Last updated on Sun Jun 21 2026 00:02:53 GMT+0000 (Coordinated Universal Time)
1 69013U 26100AK 26171.44244846 .00005146 00000+0 23744-3 0 9999
2 69013 97.4070 69.2409 0010360 24.6187 335.5541 15.20622267 7305
Next 0 passes for location: London (51.5072 / 0.1276)
No passes found over London.